Time,TemperatureF,DewpointF,PressureIn,WindDirection,WindDirectionDegrees,WindSpeedMPH,WindSpeedGustMPH,Humidity,HourlyPrecipIn,Conditions,Clouds,dailyrainin,SoftwareType,DateUTC
2013-01-12 00:00:00,6.0,-99.9,-100.00,SSE,157,6.0,10.0,-999,-99.99,,,-99.99,,2013-01-12 07:00:00,
2013-01-12 00:32:00,6.0,-99.9,-100.00,SSE,157,6.0,10.0,-999,-99.99,,,-99.99,,2013-01-12 07:32:00,
2013-01-12 00:42:00,6.0,-99.9,-100.00,SSE,157,6.0,10.0,-999,-99.99,,,-99.99,,2013-01-12 07:42:00,
2013-01-12 00:53:00,6.0,-99.9,-100.00,SSE,157,6.0,10.0,-999,-99.99,,,-99.99,,2013-01-12 07:53:00,
2013-01-12 01:00:00,5.0,-99.9,-100.00,SSE,161,3.0,4.0,-999,-99.99,,,-99.99,,2013-01-12 08:00:00,
2013-01-12 01:32:00,5.0,-99.9,-100.00,SSE,161,3.0,4.0,-999,-99.99,,,-99.99,,2013-01-12 08:32:00,
2013-01-12 01:42:00,5.0,-99.9,-100.00,SSE,161,3.0,4.0,-999,-99.99,,,-99.99,,2013-01-12 08:42:00,
2013-01-12 01:53:00,5.0,-99.9,-100.00,SSE,161,3.0,4.0,-999,-99.99,,,-99.99,,2013-01-12 08:53:00,
2013-01-12 02:00:00,2.0,-99.9,-100.00,SSE,158,5.0,5.0,-999,-99.99,,,-99.99,,2013-01-12 09:00:00,
2013-01-12 02:33:00,2.0,-99.9,-100.00,SSE,158,5.0,5.0,-999,-99.99,,,-99.99,,2013-01-12 09:33:00,
2013-01-12 02:43:00,2.0,-99.9,-100.00,SSE,158,5.0,5.0,-999,-99.99,,,-99.99,,2013-01-12 09:43:00,
2013-01-12 02:53:00,2.0,-99.9,-100.00,SSE,158,5.0,5.0,-999,-99.99,,,-99.99,,2013-01-12 09:53:00,
2013-01-12 03:00:00,1.0,-99.9,-100.00,SSE,166,3.0,4.0,-999,-99.99,,,-99.99,,2013-01-12 10:00:00,
2013-01-12 03:33:00,1.0,-99.9,-100.00,SSE,166,3.0,4.0,-999,-99.99,,,-99.99,,2013-01-12 10:33:00,
2013-01-12 03:43:00,1.0,-99.9,-100.00,SSE,166,3.0,4.0,-999,-99.99,,,-99.99,,2013-01-12 10:43:00,
2013-01-12 03:52:00,1.0,-99.9,-100.00,SSE,166,3.0,4.0,-999,-99.99,,,-99.99,,2013-01-12 10:52:00,
2013-01-12 04:00:00,-2.0,-99.9,-100.00,WSW,258,5.0,5.0,-999,-99.99,,,-99.99,,2013-01-12 11:00:00,
2013-01-12 04:33:00,-2.0,-99.9,-100.00,WSW,258,5.0,5.0,-999,-99.99,,,-99.99,,2013-01-12 11:33:00,
2013-01-12 04:43:00,-2.0,-99.9,-100.00,WSW,258,5.0,5.0,-999,-99.99,,,-99.99,,2013-01-12 11:43:00,
2013-01-12 04:53:00,-2.0,-99.9,-100.00,WSW,258,5.0,5.0,-999,-99.99,,,-99.99,,2013-01-12 11:53:00,
2013-01-12 06:00:00,-1.0,-99.9,-100.00,SSW,209,6.0,7.0,-999,-99.99,,,-99.99,,2013-01-12 13:00:00,
2013-01-12 06:33:00,-1.0,-99.9,-100.00,SSW,209,6.0,7.0,-999,-99.99,,,-99.99,,2013-01-12 13:33:00,
2013-01-12 06:43:00,-1.0,-99.9,-100.00,SSW,209,6.0,7.0,-999,-99.99,,,-99.99,,2013-01-12 13:43:00,
2013-01-12 06:53:00,-1.0,-99.9,-100.00,SSW,209,6.0,7.0,-999,-99.99,,,-99.99,,2013-01-12 13:53:00,
2013-01-12 08:34:00,-7.0,-99.9,-100.00,SW,218,7.0,8.0,-999,-99.99,,,-99.99,,2013-01-12 15:34:00,
2013-01-12 10:00:00,4.0,-99.9,-100.00,SW,225,7.0,9.0,-999,-99.99,,,-99.99,,2013-01-12 17:00:00,
2013-01-12 10:33:00,4.0,-99.9,-100.00,SW,225,7.0,9.0,-999,-99.99,,,-99.99,,2013-01-12 17:33:00,
2013-01-12 10:43:00,4.0,-99.9,-100.00,SW,225,7.0,9.0,-999,-99.99,,,-99.99,,2013-01-12 17:43:00,
2013-01-12 10:53:00,4.0,-99.9,-100.00,SW,225,7.0,9.0,-999,-99.99,,,-99.99,,2013-01-12 17:53:00,
2013-01-12 11:00:00,7.0,-99.9,-100.00,SW,220,7.0,8.0,-999,-99.99,,,-99.99,,2013-01-12 18:00:00,
2013-01-12 11:33:00,7.0,-99.9,-100.00,SW,220,7.0,8.0,-999,-99.99,,,-99.99,,2013-01-12 18:33:00,
2013-01-12 11:43:00,7.0,-99.9,-100.00,SW,220,7.0,8.0,-999,-99.99,,,-99.99,,2013-01-12 18:43:00,
2013-01-12 11:53:00,7.0,-99.9,-100.00,SW,220,7.0,8.0,-999,-99.99,,,-99.99,,2013-01-12 18:53:00,
2013-01-12 12:00:00,12.0,-99.9,-100.00,ENE,66,3.0,3.0,-999,-99.99,,,-99.99,,2013-01-12 19:00:00,
2013-01-12 12:33:00,12.0,-99.9,-100.00,ENE,66,3.0,3.0,-999,-99.99,,,-99.99,,2013-01-12 19:33:00,
2013-01-12 12:43:00,12.0,-99.9,-100.00,ENE,66,3.0,3.0,-999,-99.99,,,-99.99,,2013-01-12 19:43:00,
2013-01-12 12:53:00,12.0,-99.9,-100.00,ENE,66,3.0,3.0,-999,-99.99,,,-99.99,,2013-01-12 19:53:00,
2013-01-12 13:00:00,14.0,-99.9,-100.00,WNW,290,3.0,4.0,-999,-99.99,,,-99.99,,2013-01-12 20:00:00,
2013-01-12 13:33:00,14.0,-99.9,-100.00,WNW,290,3.0,4.0,-999,-99.99,,,-99.99,,2013-01-12 20:33:00,
2013-01-12 13:43:00,14.0,-99.9,-100.00,WNW,290,3.0,4.0,-999,-99.99,,,-99.99,,2013-01-12 20:43:00,
2013-01-12 13:53:00,14.0,-99.9,-100.00,WNW,290,3.0,4.0,-999,-99.99,,,-99.99,,2013-01-12 20:53:00,
2013-01-12 14:00:00,11.0,-99.9,-100.00,NW,316,5.0,6.0,-999,-99.99,,,-99.99,,2013-01-12 21:00:00,
2013-01-12 14:33:00,11.0,-99.9,-100.00,NW,316,5.0,6.0,-999,-99.99,,,-99.99,,2013-01-12 21:33:00,
2013-01-12 14:43:00,11.0,-99.9,-100.00,NW,316,5.0,6.0,-999,-99.99,,,-99.99,,2013-01-12 21:43:00,
2013-01-12 14:53:00,11.0,-99.9,-100.00,NW,316,5.0,6.0,-999,-99.99,,,-99.99,,2013-01-12 21:53:00,
2013-01-12 15:00:00,10.0,-99.9,-100.00,WNW,302,4.0,5.0,-999,-99.99,,,-99.99,,2013-01-12 22:00:00,
2013-01-12 15:33:00,10.0,-99.9,-100.00,WNW,302,4.0,5.0,-999,-99.99,,,-99.99,,2013-01-12 22:33:00,
2013-01-12 15:44:00,10.0,-99.9,-100.00,WNW,302,4.0,5.0,-999,-99.99,,,-99.99,,2013-01-12 22:44:00,
2013-01-12 15:53:00,10.0,-99.9,-100.00,WNW,302,4.0,5.0,-999,-99.99,,,-99.99,,2013-01-12 22:53:00,
2013-01-12 16:00:00,8.0,-99.9,-100.00,WNW,291,4.0,5.0,-999,-99.99,,,-99.99,,2013-01-12 23:00:00,
2013-01-12 16:33:00,8.0,-99.9,-100.00,WNW,291,4.0,5.0,-999,-99.99,,,-99.99,,2013-01-12 23:33:00,
2013-01-12 16:43:00,8.0,-99.9,-100.00,WNW,291,4.0,5.0,-999,-99.99,,,-99.99,,2013-01-12 23:43:00,
2013-01-12 16:53:00,8.0,-99.9,-100.00,WNW,291,4.0,5.0,-999,-99.99,,,-99.99,,2013-01-12 23:53:00,
2013-01-12 17:00:00,7.0,-99.9,-100.00,SW,224,4.0,5.0,-999,-99.99,,,-99.99,,2013-01-13 00:00:00,
2013-01-12 17:33:00,7.0,-99.9,-100.00,SW,224,4.0,5.0,-999,-99.99,,,-99.99,,2013-01-13 00:33:00,
2013-01-12 17:43:00,7.0,-99.9,-100.00,SW,224,4.0,5.0,-999,-99.99,,,-99.99,,2013-01-13 00:43:00,
2013-01-12 17:53:00,7.0,-99.9,-100.00,SW,224,4.0,5.0,-999,-99.99,,,-99.99,,2013-01-13 00:53:00,
2013-01-12 18:00:00,6.0,-99.9,-100.00,WSW,255,4.0,4.0,-999,-99.99,,,-99.99,,2013-01-13 01:00:00,
2013-01-12 18:33:00,6.0,-99.9,-100.00,WSW,255,4.0,4.0,-999,-99.99,,,-99.99,,2013-01-13 01:33:00,
2013-01-12 18:43:00,6.0,-99.9,-100.00,WSW,255,4.0,4.0,-999,-99.99,,,-99.99,,2013-01-13 01:43:00,
2013-01-12 18:53:00,6.0,-99.9,-100.00,WSW,255,4.0,4.0,-999,-99.99,,,-99.99,,2013-01-13 01:53:00,
2013-01-12 19:00:00,5.0,-99.9,-100.00,SSW,209,2.0,2.0,-999,-99.99,,,-99.99,,2013-01-13 02:00:00,
2013-01-12 19:33:00,5.0,-99.9,-100.00,SSW,209,2.0,2.0,-999,-99.99,,,-99.99,,2013-01-13 02:33:00,
2013-01-12 19:43:00,5.0,-99.9,-100.00,SSW,209,2.0,2.0,-999,-99.99,,,-99.99,,2013-01-13 02:43:00,
2013-01-12 19:53:00,5.0,-99.9,-100.00,SSW,209,2.0,2.0,-999,-99.99,,,-99.99,,2013-01-13 02:53:00,
2013-01-12 20:00:00,5.0,-99.9,-100.00,SW,224,3.0,3.0,-999,-99.99,,,-99.99,,2013-01-13 03:00:00,
2013-01-12 20:33:00,5.0,-99.9,-100.00,SW,224,3.0,3.0,-999,-99.99,,,-99.99,,2013-01-13 03:33:00,
2013-01-12 20:43:00,5.0,-99.9,-100.00,SW,224,3.0,3.0,-999,-99.99,,,-99.99,,2013-01-13 03:43:00,
2013-01-12 20:53:00,5.0,-99.9,-100.00,SW,224,3.0,3.0,-999,-99.99,,,-99.99,,2013-01-13 03:53:00,
2013-01-12 21:00:00,4.0,-99.9,-100.00,WSW,246,3.0,3.0,-999,-99.99,,,-99.99,,2013-01-13 04:00:00,
2013-01-12 21:33:00,4.0,-99.9,-100.00,WSW,246,3.0,3.0,-999,-99.99,,,-99.99,,2013-01-13 04:33:00,
2013-01-12 21:43:00,4.0,-99.9,-100.00,WSW,246,3.0,3.0,-999,-99.99,,,-99.99,,2013-01-13 04:43:00,
2013-01-12 21:53:00,4.0,-99.9,-100.00,WSW,246,3.0,3.0,-999,-99.99,,,-99.99,,2013-01-13 04:53:00,
2013-01-12 22:00:00,2.0,-99.9,-100.00,WSW,251,3.0,4.0,-999,-99.99,,,-99.99,,2013-01-13 05:00:00,
2013-01-12 22:33:00,2.0,-99.9,-100.00,WSW,251,3.0,4.0,-999,-99.99,,,-99.99,,2013-01-13 05:33:00,
2013-01-12 22:42:00,2.0,-99.9,-100.00,WSW,251,3.0,4.0,-999,-99.99,,,-99.99,,2013-01-13 05:42:00,
2013-01-12 22:53:00,2.0,-99.9,-100.00,WSW,251,3.0,4.0,-999,-99.99,,,-99.99,,2013-01-13 05:53:00,
2013-01-12 23:00:00,2.0,-99.9,-100.00,SW,228,6.0,7.0,-999,-99.99,,,-99.99,,2013-01-13 06:00:00,
2013-01-12 23:33:00,2.0,-99.9,-100.00,SW,228,6.0,7.0,-999,-99.99,,,-99.99,,2013-01-13 06:33:00,
2013-01-12 23:43:00,2.0,-99.9,-100.00,SW,228,6.0,7.0,-999,-99.99,,,-99.99,,2013-01-13 06:43:00,
2013-01-12 23:53:00,2.0,-99.9,-100.00,SW,228,6.0,7.0,-999,-99.99,,,-99.99,,2013-01-13 06:53:00,